Home > Weather > Green Bay > Past weeks

Flag for USA Past Weather in Green Bay, Wisconsin, USA — Yesterday and Last 2 Weeks

Now
76 °F

Overcast.


Feels Like: 78 °F
Forecast: 52 / 78 °F
Wind: 7 mph from Southwest

Location: Austin Straubel International Airport

Current Time: Jun 29, 2016 at 4:46:28 PM

Latest Report: Jun 29, 2016 at 3:53 PM


Visibility: 10 mi

Pressure: 30.06 "Hg

Humidity: 42%

Dew Point: 51 °F

Location of Green BayLocation

Past Weather in Green Bay — Graph

°F

Green Bay Temperature Yesterday

Maximum temperature yesterday: 75 °F (at 5:53 PM)
Minimum temperature yesterday: 54 °F (at 4:53 AM)
Average temperature yesterday: 64 °F

High & Low Weather Summary for the Past Weeks

 TemperatureHumidityPressure
High89 °F (Jun 25, 2:53 PM)97% (Jun 15, 7:53 PM)30.23 "Hg (Jun 15, 7:53 PM)
Low51 °F (Jun 29, 4:53 AM)30% (Jun 23, 5:53 PM)29.66 "Hg (Jun 15, 5:53 PM)
Average70 °F66%29.98 "Hg
* Reported Jun 14 2:53 PM — Jun 29 2:53 PM, Green Bay, Weather by CustomWeather, © 2016

Note: Actual official high and low records may vary slightly from our data, if they occured in-between our weather recording intervals... More about our weather records

Advertising

Green Bay Weather History for the Previous 24 Hours

Scroll right to see more
 ConditionsComfort  
Time TempWeatherWind HumidityBarometerVisibility
2:53 PM
Wed, Jun 29
77 °FScattered clouds.9 mph39%30.07 "Hg10 mi
1:53 PM75 °FScattered clouds.No wind42%30.09 "Hg10 mi
12:53 PM77 °FScattered clouds.N/A42%30.09 "Hg10 mi
11:53 AM74 °FSunny.3 mph43%30.10 "Hg10 mi
10:53 AM71 °FSunny.No wind49%30.11 "Hg10 mi
9:53 AM69 °FSunny.3 mph53%30.13 "Hg10 mi
8:53 AM66 °FSunny.N/A54%30.14 "Hg10 mi
7:53 AM62 °FSunny.No wind65%30.13 "Hg10 mi
6:53 AM58 °FSunny.No wind81%30.13 "Hg10 mi
5:53 AM52 °FClear.3 mph93%30.12 "Hg10 mi
4:53 AM51 °FClear.No wind92%30.13 "Hg10 mi
3:53 AM53 °FClear.No wind89%30.15 "Hg10 mi
2:53 AM53 °FClear.7 mph89%30.17 "Hg10 mi
1:53 AM54 °FClear.No wind93%30.13 "Hg10 mi
12:53 AM56 °FClear.No wind87%30.13 "Hg10 mi
11:53 PM
Tue, Jun 28
57 °FClear.No wind83%30.13 "Hg10 mi
10:53 PM60 °FClear.No wind75%30.13 "Hg10 mi
9:53 PM61 °FClear.7 mph75%30.12 "Hg10 mi
8:53 PM64 °FSunny.7 mph68%30.11 "Hg10 mi
7:53 PM70 °FSunny.5 mph51%30.11 "Hg10 mi
6:53 PM74 °FSunny.7 mph40%30.11 "Hg10 mi
5:53 PM75 °FSunny.5 mph39%30.13 "Hg10 mi
4:53 PM74 °FSunny.9 mph40%30.14 "Hg10 mi
Weather by CustomWeather, © 2016

See weather overviewHow to use our weather pages